Weather History for KCQC - October, 2012

Change the Weather History Date:

Sunday, October 14, 2012

  Actual Average (KSAF) Record (KSAF)
Temperature  
Mean Temperature 52 °F -  
Max Temperature 66 °F 66 °F 78 °F (1998)
Min Temperature 37 °F 29 °F 27 °F (1978)
Degree Days  
Heating Degree Days 14    
Growing Degree Days 2 (Base 50)    
Moisture  
Dew Point 31 °F    
Average Humidity 52    
Maximum Humidity 79    
Minimum Humidity 21    
Precipitation  
Precipitation 0.00 in - - ()
Sea Level Pressure  
Sea Level Pressure 30.20 in    
Wind  
Wind Speed 10 mph (West)    
Max Wind Speed 13 mph    
Max Gust Speed 18 mph    
Visibility 10 miles    
Events      
Averages and records for this station are not official NWS values.
T = Trace of Precipitation, MM = Missing Value Source: NWS Daily Summary

Daily Weather History Graph

Daily Weather History Graph

Search for Another Location

Airport or City:

Trip Planner

Search our weather history database for the weather conditions in past years. The results will help you decide how hot, cold, wet, or windy it might be!

Date:

Astronomy

Oct. 14, 2012 Rise Set
Actual Time 7:08 AM MDT 6:28 PM MDT
Civil Twilight 6:42 AM MDT 6:53 PM MDT
Nautical Twilight 6:13 AM MDT 7:23 PM MDT
Astronomical Twilight 5:43 AM MDT 7:52 PM MDT
Moon 6:10 AM MDT (10/14) 5:50 PM MDT (10/14)
Length of Visible Light 12h 11m
Length of Day
11h 20m
Waning Crescent, 1% of the Moon is Illuminated
Oct 14
Waning Crescent
Oct 15
New
Oct 21
First Quarter
Oct 29
Full
Nov 6
Last Quarter

Hourly Weather History & Observations

Time (MDT) Temp. Windchill Dew Point Humidity Pressure Visibility Wind Dir Wind Speed Gust Speed Precip Events Conditions
12:53 AM 37.9 °F 31.5 °F 30.0 °F 73% 30.14 in 10.0 mi WNW 9.2 mph - N/A   Clear
1:53 AM 37.0 °F 31.6 °F 30.0 °F 76% 30.17 in 10.0 mi WNW 6.9 mph - N/A   Clear
2:53 AM 39.0 °F 31.8 °F 30.9 °F 73% 30.17 in 10.0 mi WNW 11.5 mph - N/A   Clear
3:53 AM 39.9 °F 32.9 °F 32.0 °F 73% 30.16 in 10.0 mi WNW 11.5 mph - N/A   Clear
4:53 AM 39.0 °F 31.8 °F 32.0 °F 76% 30.19 in 10.0 mi WNW 11.5 mph - N/A   Clear
5:53 AM 37.0 °F 28.9 °F 30.9 °F 79% 30.24 in 10.0 mi WNW 12.7 mph - N/A   Clear
6:53 AM 37.0 °F 29.8 °F 30.9 °F 79% 30.26 in 10.0 mi WNW 10.4 mph - N/A   Clear
7:53 AM 39.9 °F 32.9 °F 33.1 °F 77% 30.26 in 10.0 mi WNW 11.5 mph - N/A   Clear
8:53 AM 48.0 °F - 35.1 °F 61% 30.25 in 10.0 mi NW 12.7 mph - N/A   Clear
9:53 AM 52.0 °F - 34.0 °F 50% 30.26 in 10.0 mi NW 11.5 mph - N/A   Clear
10:53 AM 55.0 °F - 34.0 °F 45% 30.26 in 10.0 mi West 8.1 mph - N/A   Clear
11:53 AM 60.1 °F - 32.0 °F 35% 30.24 in 10.0 mi West 11.5 mph 17.3 mph N/A   Clear
12:53 PM 63.0 °F - 30.9 °F 30% 30.24 in 10.0 mi West 9.2 mph - N/A   Clear
1:53 PM 64.9 °F - 28.9 °F 26% 30.20 in 10.0 mi West 10.4 mph - N/A   Clear
2:53 PM 66.0 °F - 27.0 °F 23% 30.16 in 10.0 mi West 11.5 mph 17.3 mph N/A   Clear
3:53 PM 66.0 °F - 26.1 °F 22% 30.14 in 10.0 mi SW 11.5 mph 18.4 mph N/A   Clear
4:53 PM 66.0 °F - 25.0 °F 21% 30.14 in 10.0 mi West 6.9 mph - N/A   Clear
5:53 PM 63.0 °F - 27.0 °F 26% 30.16 in 10.0 mi SW 6.9 mph - N/A   Clear
6:53 PM 55.9 °F - 28.0 °F 34% 30.19 in 10.0 mi WSW 5.8 mph - N/A   Clear
7:53 PM 53.1 °F - 30.0 °F 41% 30.20 in 10.0 mi South 8.1 mph - N/A   Clear
8:53 PM 48.0 °F - 32.0 °F 54% 30.22 in 10.0 mi SSW 10.4 mph - N/A   Clear
9:53 PM 48.0 °F - 32.0 °F 54% 30.19 in 10.0 mi South 10.4 mph - N/A   Clear
10:53 PM 45.0 °F 38.9 °F 32.0 °F 60% 30.19 in 10.0 mi SSW 12.7 mph - N/A   Clear
11:53 PM 44.1 °F 39.5 °F 30.9 °F 60% 30.17 in 10.0 mi WSW 8.1 mph - N/A   Clear